Location: Boitzum
(52.1496°N, 9.6943°E)
Time: 21:14:51
(UTC+00:00)

Cosmos 864 Rocket - Pass Details

Date: 13 January 2026
Orbit: 953 x 990 km, 82.9° (Epoch: 15 February)

Event Time Altitude Azimuth Distance (km) Brightness Sun altitude
Rises 06:38:21 0° 192° (SSW) 3,621 7.7 -6.9°
Reaches altitude 10° 06:40:50 10° 193° (SSW) 2,677 7.0 -6.6°
Maximum altitude 06:46:58 79° 281° (W) 976 4.5 -5.8°
Drops below altitude 10° 06:53:09 10° 9° (N) 2,697 6.6 -4.9°
Sets 06:55:40 0° 10° (N) 3,649 7.3 -4.6°
